"Pseudo-MPEC" for or03031

Created 2024 Nov 25 13:31:16 UT using Find_Orb

Click here for an explanation of pseudo-MPECs

 
 Astrometry: 
     or03031*KC2024 11 05.20245 07 25 28.15 +14 49 34.7    ~B5E2 18.9 GVNEOCPJ43
     or03031 KC2024 11 05.20950 07 25 28.17 +14 49 40.4    ~B5E2 18.1 GVNEOCPJ43
     or03031 KC2024 11 05.21654 07 25 28.21 +14 49 44.8    ~B5E2       VNEOCPJ43

Station data:
(J43) Oukaïmeden Observatory, Marrakech  (N31.206437 W7.866460)  Morocco.
   Observer C. Rinner. Measurers C. Rinner, M. Ory. 0.5-m f/3 reflector + CCD.

Orbital elements:  or03031
   Perihelion 2025 Feb 18.26740 +/- 134 TT =  6:25:03 (JD 2460724.76740)
Epoch 2024 Nov  5.0 TT = JDT 2460619.5   Earth MOID: 0.2350   Ma: 0.0406
M 283.49661641 +/- 70               (J2000 ecliptic)             AutoNEOCP
n   0.72675287 +/- 0.663            Peri.  153.36878 +/- 70
a   1.22521285 +/- 0.745            Node    80.20560 +/- 20
e   0.8176417 +/- 0.246             Incl.   61.48397 +/- 41
P   1.356/495.345d         H 16.15  G  0.15   U 12.5  SR
q 0.22342773 +/- 0.92    Q 2.22699797 +/- 34.8
From 3 observations 2024 Nov. 5 (20.3 min); mean residual 0".22
Residuals in arcseconds: 
241105 J43  .05+  .22-    241105 J43  .10-  .43+    241105 J43  .05+  .21-    

Ephemerides (geocentric):
Date (UTC) HH   RA             Dec           delta  r     elong  mag " sig PA
---- --------  ------------   ------------  ------ ------ -----  --- --------
2024 11 25 14  07 13 34.421   +22 21 37.23  .63179 1.5093 136.5 17.3  65d 100
2024 11 25 15  07 13 30.129   +22 23 12.38  .63100 1.5088 136.5 17.2  65d 100
2024 11 25 16  07 13 25.817   +22 24 47.78  .63020 1.5084 136.6 17.2  65d 100
2024 11 25 17  07 13 21.487   +22 26 23.42  .62940 1.5080 136.7 17.2  65d 100
2024 11 25 18  07 13 17.137   +22 27 59.31  .62861 1.5076 136.7 17.2  65d 100
2024 11 25 19  07 13 12.769   +22 29 35.45  .62781 1.5072 136.8 17.2  65d 100
2024 11 25 20  07 13 08.382   +22 31 11.83  .62701 1.5068 136.9 17.2  65d 100
2024 11 25 21  07 13 03.976   +22 32 48.46  .62622 1.5064 136.9 17.2  65d 101
2024 11 25 22  07 12 59.551   +22 34 25.34  .62542 1.5060 137.0 17.2  65d 101
2024 11 25 23  07 12 55.107   +22 36 02.47  .62463 1.5055 137.0 17.2  65d 101
2024 11 26 00  07 12 50.643   +22 37 39.85  .62384 1.5051 137.1 17.2  65d 101
2024 11 26 01  07 12 46.160   +22 39 17.48  .62304 1.5047 137.2 17.2  65d 101
2024 11 26 02  07 12 41.658   +22 40 55.36  .62225 1.5043 137.2 17.2  65d 101
2024 11 26 03  07 12 37.136   +22 42 33.49  .62146 1.5039 137.3 17.2  65d 101
2024 11 26 04  07 12 32.595   +22 44 11.88  .62066 1.5035 137.4 17.2  65d 101
2024 11 26 05  07 12 28.034   +22 45 50.52  .61987 1.5031 137.4 17.2  65d 101
2024 11 26 06  07 12 23.453   +22 47 29.41  .61908 1.5026 137.5 17.2  65d 101
2024 11 26 07  07 12 18.853   +22 49 08.56  .61829 1.5022 137.5 17.2  65d 101
2024 11 26 08  07 12 14.233   +22 50 47.96  .61750 1.5018 137.6 17.2  65d 101
2024 11 26 09  07 12 09.593   +22 52 27.62  .61671 1.5014 137.7 17.2  65d 101
2024 11 26 10  07 12 04.933   +22 54 07.54  .61592 1.5010 137.7 17.2  65d 101
2024 11 26 11  07 12 00.252   +22 55 47.72  .61513 1.5006 137.8 17.2  65d 101
2024 11 26 12  07 11 55.552   +22 57 28.15  .61434 1.5001 137.9 17.2  65d 101
2024 11 26 13  07 11 50.832   +22 59 08.85  .61355 1.4997 137.9 17.2  65d 101
2024 11 26 14  07 11 46.091   +23 00 49.80  .61276 1.4993 138.0 17.2  65d 101
2024 11 26 15  07 11 41.329   +23 02 31.02  .61197 1.4989 138.1 17.1  65d 101
2024 11 26 16  07 11 36.548   +23 04 12.49  .61118 1.4985 138.1 17.1  65d 101
2024 11 26 17  07 11 31.745   +23 05 54.23  .61039 1.4981 138.2 17.1  65d 101
2024 11 26 18  07 11 26.922   +23 07 36.24  .60961 1.4976 138.2 17.1  65d 101
2024 11 26 19  07 11 22.079   +23 09 18.50  .60882 1.4972 138.3 17.1  65d 101
2024 11 26 20  07 11 17.215   +23 11 01.03  .60803 1.4968 138.4 17.1  65d 101
2024 11 26 21  07 11 12.329   +23 12 43.83  .60725 1.4964 138.4 17.1  65d 101
2024 11 26 22  07 11 07.423   +23 14 26.89  .60646 1.4960 138.5 17.1  65d 101
2024 11 26 23  07 11 02.496   +23 16 10.22  .60568 1.4956 138.6 17.1  65d 101
2024 11 27 00  07 10 57.548   +23 17 53.81  .60489 1.4951 138.6 17.1  65d 101
2024 11 27 01  07 10 52.578   +23 19 37.68  .60411 1.4947 138.7 17.1  65d 101
2024 11 27 02  07 10 47.587   +23 21 21.81  .60332 1.4943 138.8 17.1  64d 101
2024 11 27 03  07 10 42.575   +23 23 06.22  .60254 1.4939 138.8 17.1  64d 101
2024 11 27 04  07 10 37.542   +23 24 50.89  .60176 1.4935 138.9 17.1  64d 101
2024 11 27 05  07 10 32.487   +23 26 35.83  .60098 1.4931 138.9 17.1  64d 101
2024 11 27 06  07 10 27.410   +23 28 21.05  .60019 1.4926 139.0 17.1  64d 101
2024 11 27 07  07 10 22.311   +23 30 06.54  .59941 1.4922 139.1 17.1  64d 101
2024 11 27 08  07 10 17.191   +23 31 52.30  .59863 1.4918 139.1 17.1  64d 101
2024 11 27 09  07 10 12.049   +23 33 38.34  .59785 1.4914 139.2 17.1  64d 101
2024 11 27 10  07 10 06.885   +23 35 24.66  .59707 1.4910 139.3 17.1  64d 101
2024 11 27 11  07 10 01.699   +23 37 11.24  .59629 1.4905 139.3 17.1  64d 101
2024 11 27 12  07 09 56.491   +23 38 58.11  .59551 1.4901 139.4 17.1  64d 101
2024 11 27 13  07 09 51.261   +23 40 45.25  .59473 1.4897 139.5 17.1  64d 101